Weather Roundup
Issued by NWS

Home | Current Version | Previous Version | Graphics & Text | Print | Product List | Glossary Off
Versions: 1 2 3 4 5 6 7 8 9 10 11 12 13 14 15 16 17 18 19 20 21 22 23 24 25 26 27 28 29 30 31 32 33 34 35 36 37 38 39 40 41 42 43 44 45 46 47 48 49 50

000
NZUS93 KARX 060059
HRRWXR

CURRENT HOURLY OBSERVATIONS ACROSS
MUCH OF THE UPPER MISSISSIPPI VALLEY
NATIONAL WEATHER SERVICE LA CROSSE WI
800 PM CDT SUN JUL 05 2015


...SOUTHEAST MINNESOTA...


CITY           SKY/WX    TMP DP  RH WIND       PRES   REMARKS
ROCHESTER      PTCLDY    78  66  66 S16G26    29.90F
ROCHESTER/MAYO FAIR      80  66  62 S12G20    29.90S
WINONA         MOCLDY    79  64  61 S5        29.90F
AUSTIN         PTCLDY    81  66  61 S9G16     29.89S
ALBERT LEA     CLEAR     81  66  61 S15       29.87S
DODGE CENTER   PTCLDY    79  66  65 S14G21    29.89S
PRESTON        PTCLDY    76  65  68 S10       29.93S
OWATONNA       CLEAR     81  66  61 S15G21    29.86S
FARIBAULT      CLEAR     81  70  69 S14       29.85S
$$

...ELSEWHERE IN MINNESOTA...


CITY           SKY/WX    TMP DP  RH WIND       PRES   REMARKS
MINNEAPOLIS    MOCLDY    84  69  60 S16G24    29.81F
INTNL FALLS    PTSUNNY   71  64  78 W8        29.77R
DULUTH         MOCLDY    79  68  69 S9        29.79R
RED WING       PTCLDY    82  66  57 SE9         N/A
REDWOOD FALLS  PTCLDY    86  71  60 S16       29.76F HX  91
MANKATO        CLEAR     82  68  61 S10G16    29.82F
WORTHINGTON    PTCLDY    82  68  61 S15       29.82R
FAIRMONT       PTCLDY    82  66  57 S13       29.82F
$$

...SOUTHWEST WISCONSIN...


CITY           SKY/WX    TMP DP  RH WIND       PRES   REMARKS
LA CROSSE      PTCLDY    80  65  59 S10       29.91S
PRAIRIE DU CHI CLEAR     80  62  53 SE7       29.95S
BOSCOBEL       CLEAR     79  66  64 S3        29.95F
LONE ROCK      NOT AVBL
PLATTEVILLE    CLEAR     76  68  76 SE6       29.99R
FORT MC COY    PTCLDY    79  62  55 S10       29.94F
VIROQUA        FAIR      76  64  66 S10       29.97S
WIS DELLS      PTCLDY    77  62  59 S8        29.97S
$$

...ELSEWHERE IN WISCONSIN...


CITY           SKY/WX    TMP DP  RH WIND       PRES   REMARKS
MILWAUKEE      PTCLDY    74  59  59 S9        30.01S
MADISON        MOCLDY    79  63  57 S9        29.98S
GREEN BAY      CLEAR     77  64  64 S12       29.96F
EAU CLAIRE     NOT AVBL
BLACK RVR FLS  FAIR      79  61  53 S6        29.91F
MEDFORD        PTCLDY    76  63  63 S7        29.94R
WAUSAU         PTCLDY    78  62  57 S10       29.92F
WIS RAPIDS     PTCLDY    79  62  56 S9        29.96S
MARSHFIELD     PTCLDY    75  63  66 S8        29.93F
RICE LAKE      MOCLDY    80  65  62 S13G22    29.87F
$$

...NORTHEAST IOWA...


CITY           SKY/WX    TMP DP  RH WIND       PRES   REMARKS
DECORAH          N/A    N/A N/A N/A MISG        N/A
MASON CITY     CLEAR     80  68  66 S12       29.90S
CHARLES CITY   CLEAR     79  70  73 S8        29.92F
OELWEIN        CLEAR     79  70  73 S8        29.95S
$$

...ELSEWHERE IN IOWA...


CITY           SKY/WX    TMP DP  RH WIND       PRES   REMARKS
DES MOINES     PTCLDY    83  68  60 S13       29.88F
IOWA CITY      CLEAR     80  68  66 SE7       29.95F
FORT DODGE     PTCLDY    81  68  65 SE9       29.87S
$$

...NORTHERN ILLINOIS...


CITY           SKY/WX    TMP DP  RH WIND       PRES   REMARKS
CHICAGO-OHARE  CLEAR     78  60  53 S9        30.01F
CHICAGO-MIDWAY CLEAR     82  60  47 S8        30.02S
MOLINE         MOCLDY    78  66  66 SE6       29.97F
ROCKFORD       PTCLDY    77  63  61 S8        30.01F
PEORIA         CLEAR     79  65  62 SE3       30.01S
$$

NOTE: "FAIR" INDICATES FEW OR NO CLOUDS BELOW 12,000 FEET WITH NO
SIGNIFICANT WEATHER AND/OR OBSTRUCTIONS TO VISIBILITY. WIND
SPEEDS ARE IN MILES-PER-HOUR.



USA.gov is the U.S. government's official web portal to all federal, state and local government web resources and services.